SL-12 DEB, 41806

Orbit data source: Space-Track

SL-12 DEB, 41806 is space debris in HEO originally from a launch on Mon, 25 Dec 2006 UTC launched from the Tyuratam Missile And Space Complex (TTMTR). Debris objects in space refer to the collection of defunct objects orbiting the Earth. Examples of debris include non-operational satellites, rocket bodies, and fragments generated from explosions, collisions, or faulty payload assembly.

Loading next visibility...
Identifier
41806, 2006-062L
Orbit
HEO
Last TLE update
16 hours ago
Origin
Manufacturer
RKKE
Mission
Spacecraft
Bus & Motor
Unknown
Mass
Unknown
Launch date (UTC)
2006-12-25 (19 years ago)
Launch vehicle
Unknown
Launch site
Tyuratam Missile And Space Complex (TTMTR)
Object type
Payload
Rocket body
Debris
Shape & HBR
Unknown
Radar Cross Section
Medium (>0.1 m² and <1 m²)

Expand to show TLE details & history

TLE from 16 hours ago
0 SL-12 DEB
1 41806U 06062L   25183.18258065  .00000082  00000-0  28547-3 0  9996
2 41806  64.3208 153.3656 5713499 325.4896   8.0463  4.14238876134594
Epoch: 2025-07-02T04:22Z
TLE epoch observation values (Epoch: 2025-07-02T04:22:54.968Z)
Latitude
-0.00014°
Longitude
167.17084°
Altitude
1,123.884 km
Speed
9.053 km/s
True Right ascension
10h 13m 28s
True Declination
0° 00' 01"
Sunlit
Object was in daylight at epoch
Visualization orbit readout
Latitude
-5.98647°
Longitude
-10.17714°
Altitude
12,990.032 km
Speed
4.102 km/s
Apparent Right ascension
21h 57m 05s
Apparent Declination
-14° 32' 08"
Sunlit
Object is in daylight
Visualization observer readout
Local Sidereal Time
08:07:03
Azimuth
308.717° NW
Elevation
-55.039°
Doppler factor
1
Orbital elements
Apogee altitude
19,354.222 km
Perigee altitude
641.419 km
Semi-major axis
16,375.958 km
Eccentricity
0.57135
Inclination
64.3208°
RAAN
153.3656°
Arg. of periapsis
325.4896°
True anomaly
Unknown
Mean anomaly
8.0463°
Eccentric anomaly
Unknown
Mean motion
1.0357 °/min
Orbital period
347.59 mins
BSTAR
0.00028547
Loading maneuver chart data...
Loading SW <> Apogee altitude chart data...
Loading historical data...
Loading historical data...
Loading historical data...
Loading historical data...
Loading historical data...
Loading historical data...
Loading historical data...

SL-12 DEB Visibility forecast

Observer location: undefined°, undefined°

Span
Click to sort rows by Start time (UTC) header in descending order
Start Az.
Max El. time (UTC)
Max El. Az.
Max El.
End time (UTC)
End Az.
48 mins2025-07-02 21:51:02.222Z140.068° SSE2025-07-02 22:00:02.222Z81.876° E30.078°2025-07-02 22:39:02.222Z30.786° NE
251 mins2025-07-03 03:50:02.222Z293.34° NW2025-07-03 04:29:02.222Z15.334° NNE38.259°2025-07-03 08:01:02.222Z132.782° SE
216 mins2025-07-03 10:05:02.222Z328.001° NNW2025-07-03 11:28:02.222Z288.196° WNW37.098°2025-07-03 13:41:02.222Z237.004° WSW
|